Weather History for Watertown, SD

Change the Weather History Date:

Thursday, February 7, 2013

  Actual Average Record
Temperature  
Mean Temperature 21 °F 15 °F  
Max Temperature 25 °F 25 °F 59 °F (1987)
Min Temperature 17 °F 5 °F -30 °F (1914)
Degree Days  
Heating Degree Days 44 50  
Month to date heating degree days 351 354  
Since 1 July heating degree days 5321 5436  
Cooling Degree Days 0 0  
Month to date cooling degree days 0 0  
Year to date cooling degree days 0 0  
Moisture  
Dew Point 19 °F    
Average Humidity 96    
Maximum Humidity 100    
Minimum Humidity 91    
Precipitation  
Precipitation 0.00 in 0.01 in 0.25 in (2001)
Month to date precipitation 0.07 0.11  
Year to date precipitation 0.35 0.63  
Snow  
Snow 0.00 in - - ()
Month to date snowfall 0.8  
Since 1 July snowfall 13.4  
Snow Depth 6.00 in    
Sea Level Pressure  
Sea Level Pressure 30.15 in    
Wind  
Wind Speed 9 mph (NNE)    
Max Wind Speed 12 mph    
Max Gust Speed 14 mph    
Visibility 4 miles    
Events      
T = Trace of Precipitation, MM = Missing Value Source: NWS Daily Summary

Daily Weather History Graph

Daily Weather History Graph

Search for Another Location

Airport:

Trip Planner

Search our weather history database for the weather conditions in past years. The results will help you decide how hot, cold, wet, or windy it might be!

Date:

Astronomy

Feb. 07, 2013 Rise Set
Actual Time 7:40 AM CST 5:45 PM CST
Civil Twilight 7:09 AM CST 6:16 PM CST
Nautical Twilight 6:34 AM CST 6:51 PM CST
Astronomical Twilight 6:00 AM CST 7:25 PM CST
Moon 5:25 AM CST (2/7) 3:08 PM CST (2/7)
Length of Visible Light 11h 06m
Length of Day
10h 05m
Waning Crescent, 9% of the Moon is Illuminated
Feb 7
Waning Crescent
Feb 10
New
Feb 17
First Quarter
Feb 25
Full
Mar 4
Last Quarter

Hourly Weather History & Observations

Time (CST) Temp. Windchill Dew Point Humidity Pressure Visibility Wind Dir Wind Speed Gust Speed Precip Events Conditions
12:00 AM 24.8 °F 16.1 °F 24.8 °F 100% 29.98 in 1.8 mi North 8.1 mph - N/A   Overcast
12:12 AM 24.8 °F 14.0 °F 24.8 °F 100% 29.98 in 1.0 mi North 11.5 mph - N/A   Overcast
12:53 AM 24.1 °F 13.1 °F 23.0 °F 96% 30.05 in 0.8 mi North 11.5 mph - N/A   Overcast
1:11 AM 23.0 °F 11.7 °F 23.0 °F 100% 29.99 in 1.2 mi NNE 11.5 mph - N/A   Overcast
1:37 AM 23.0 °F 11.7 °F 21.2 °F 93% 29.99 in 0.8 mi NNE 11.5 mph - N/A   Overcast
1:45 AM 23.0 °F 11.1 °F 21.2 °F 93% 30.00 in 1.2 mi NNE 12.7 mph - N/A   Overcast
1:53 AM 23.0 °F 12.4 °F 21.9 °F 96% 30.06 in 1.5 mi NNE 10.4 mph - N/A   Overcast
2:15 AM 23.0 °F 13.9 °F 21.2 °F 93% 30.00 in 2.5 mi NNE 8.1 mph - N/A   Overcast
2:25 AM 21.2 °F 10.9 °F 21.2 °F 100% 30.01 in 4.0 mi NNE 9.2 mph - N/A   Overcast
2:53 AM 21.9 °F 11.0 °F 21.0 °F 96% 30.08 in 4.0 mi NNE 10.4 mph - N/A   Overcast
3:32 AM 21.2 °F 9.5 °F 21.2 °F 100% 30.02 in 2.0 mi NNE 11.5 mph - N/A   Overcast
3:53 AM 21.0 °F 9.3 °F 21.0 °F 100% 30.09 in 1.8 mi North 11.5 mph - N/A   Overcast
4:01 AM 21.2 °F 10.1 °F 19.4 °F 93% 30.02 in 2.0 mi NNE 10.4 mph - N/A   Overcast
4:32 AM 21.2 °F 9.5 °F 19.4 °F 93% 30.02 in 3.0 mi NNE 11.5 mph - N/A   Overcast
4:53 AM 21.0 °F 9.9 °F 19.9 °F 96% 30.10 in 4.0 mi North 10.4 mph - N/A   Overcast
5:53 AM 21.0 °F 8.6 °F 19.9 °F 96% 30.12 in 3.0 mi North 12.7 mph - N/A   Overcast
6:00 AM 21.2 °F 8.9 °F 19.4 °F 93% 30.04 in 2.0 mi NNE 12.7 mph - N/A   Overcast
6:53 AM 21.0 °F 9.3 °F 19.9 °F 96% 30.13 in 4.0 mi North 11.5 mph - N/A   Overcast
7:20 AM 19.4 °F 7.2 °F 19.4 °F 100% 30.06 in 2.0 mi North 11.5 mph - N/A   Overcast
7:53 AM 19.9 °F 9.3 °F 19.0 °F 96% 30.15 in 3.0 mi NNE 9.2 mph - N/A   Overcast
8:36 AM 19.4 °F 7.2 °F 17.6 °F 93% 30.10 in 7.0 mi North 11.5 mph - N/A   Overcast
8:53 AM 19.9 °F 7.9 °F 18.0 °F 92% 30.19 in 6.0 mi North 11.5 mph - N/A   Overcast
9:53 AM 19.9 °F 7.3 °F 18.0 °F 92% 30.22 in 5.0 mi North 12.7 mph - N/A   Overcast
10:53 AM 19.9 °F 8.6 °F 18.0 °F 92% 30.22 in 5.0 mi NNE 10.4 mph - N/A   Overcast
11:46 AM 19.4 °F 7.9 °F 17.6 °F 93% 30.14 in 6.0 mi NNE 10.4 mph - N/A   Overcast
11:53 AM 19.9 °F 8.6 °F 19.0 °F 96% 30.23 in 6.0 mi North 10.4 mph - N/A   Overcast
12:53 PM 19.9 °F 8.6 °F 19.0 °F 96% 30.23 in 6.0 mi NNE 10.4 mph - N/A   Overcast
1:53 PM 21.0 °F 11.4 °F 19.0 °F 92% 30.22 in 6.0 mi NNE 8.1 mph - N/A   Overcast
2:53 PM 21.9 °F 11.0 °F 19.0 °F 89% 30.23 in 7.0 mi North 10.4 mph - N/A   Overcast
3:53 PM 21.0 °F 10.6 °F 19.0 °F 92% 30.25 in 6.0 mi North 9.2 mph - N/A   Overcast
4:53 PM 21.0 °F 11.4 °F 19.0 °F 92% 30.25 in 6.0 mi NE 8.1 mph - N/A   Overcast
5:53 PM 19.9 °F 11.1 °F 18.0 °F 92% 30.27 in 6.0 mi NNE 6.9 mph - N/A   Overcast
6:53 PM 19.0 °F 11.1 °F 18.0 °F 96% 30.29 in 8.0 mi NNE 5.8 mph - N/A   Overcast
7:53 PM 19.0 °F 13.9 °F 18.0 °F 96% 30.30 in 5.0 mi ESE 3.5 mph - N/A   Overcast
8:53 PM 18.0 °F 11.1 °F 17.1 °F 96% 30.31 in 4.0 mi ENE 4.6 mph - N/A   Overcast
9:34 PM 17.6 °F 8.2 °F 17.6 °F 100% 30.21 in 1.8 mi East 6.9 mph - N/A   Overcast
9:53 PM 18.0 °F 9.8 °F 17.1 °F 96% 30.32 in 1.5 mi NE 5.8 mph - N/A   Overcast
10:10 PM 17.6 °F 9.3 °F 17.6 °F 100% 30.23 in 1.0 mi East 5.8 mph - N/A   Overcast
10:19 PM 17.6 °F 9.3 °F 17.6 °F 100% 30.23 in 0.8 mi East 5.8 mph - N/A   Overcast
10:32 PM 17.6 °F 8.2 °F 17.6 °F 100% 30.23 in 1.0 mi NE 6.9 mph - N/A   Overcast
10:48 PM 17.6 °F 9.3 °F 17.6 °F 100% 30.23 in 1.8 mi ENE 5.8 mph - N/A   Overcast
10:53 PM 18.0 °F 8.7 °F 17.1 °F 96% 30.32 in 2.0 mi ENE 6.9 mph - N/A   Overcast
11:07 PM 17.6 °F 9.3 °F 15.8 °F 93% 30.23 in 5.0 mi SE 5.8 mph - N/A   Overcast
11:53 PM 18.0 °F 11.1 °F 16.0 °F 92% 30.31 in 5.0 mi East 4.6 mph - N/A   Overcast